Location: Shenandoah County Park
(38.9356°N, 78.4524°W)
Time: 07:18:38
(UTC-05:00)

S-56A Canister/Altair - Pass Details

Date: 18 December 2023
Orbit: 640 x 2488 km, 38.9° (Epoch: 22 February)

Event Time Altitude Azimuth Distance (km) Brightness Sun altitude
Rises 05:04:48 0° 205° (SSW) 5,687 11.8 -26.8°
Reaches altitude 10° 05:09:46 10° 194° (SSW) 4,400 11.3 -25.8°
Maximum altitude 05:18:13 24° 147° (SSE) 2,821 10.8 -24.2°
Drops below altitude 10° 05:24:37 10° 97° (E) 3,264 11.8 -23.0°
Sets 05:27:38 0° 83° (E) 3,970 12.4 -22.4°
